Time,TemperatureF,DewpointF,PressureIn,WindDirection,WindDirectionDegrees,WindSpeedMPH,WindSpeedGustMPH,Humidity,HourlyPrecipIn,Conditions,Clouds,dailyrainin,SoftwareType,DateUTC
2013-11-03 00:01:00,46.1,40.3,30.13,NW,305,0.0,1.0,80,0.00,,,0.00,Wunderground v.1.15,2013-11-03 04:01:00,
2013-11-03 00:02:00,46.1,40.3,30.13,WNW,300,1.0,1.0,80,0.00,,,0.00,Wunderground v.1.15,2013-11-03 04:02:00,
2013-11-03 00:03:00,46.0,39.9,30.13,WNW,300,1.0,1.0,79,0.00,,,0.00,Wunderground v.1.15,2013-11-03 04:03:00,
2013-11-03 00:06:00,46.0,40.2,30.13,WNW,300,0.0,1.0,80,0.00,,,0.00,Wunderground v.1.15,2013-11-03 04:06:00,
2013-11-03 00:08:00,45.9,40.1,30.13,WNW,288,1.0,2.0,80,0.00,,,0.00,Wunderground v.1.15,2013-11-03 04:08:00,
2013-11-03 00:13:00,45.7,39.9,30.13,NW,304,0.0,2.0,80,0.00,,,0.00,Wunderground v.1.15,2013-11-03 04:13:00,
2013-11-03 00:19:00,45.5,39.7,30.12,WNW,286,1.0,2.0,80,0.00,,,0.00,Wunderground v.1.15,2013-11-03 04:19:00,
2013-11-03 00:24:00,45.4,39.9,30.13,WNW,295,2.0,2.0,81,0.00,,,0.00,Wunderground v.1.15,2013-11-03 04:24:00,
2013-11-03 00:29:00,45.3,39.8,30.13,NNW,344,0.0,2.0,81,0.00,,,0.00,Wunderground v.1.15,2013-11-03 04:29:00,
2013-11-03 00:35:00,45.2,39.7,30.13,NNW,344,1.0,2.0,81,0.00,,,0.00,Wunderground v.1.15,2013-11-03 04:35:00,
2013-11-03 00:40:00,45.1,39.9,30.13,NNE,32,0.0,0.0,82,0.00,,,0.00,Wunderground v.1.15,2013-11-03 04:40:00,
2013-11-03 00:46:00,45.1,39.9,30.13,NNE,12,1.0,1.0,82,0.00,,,0.00,Wunderground v.1.15,2013-11-03 04:46:00,
2013-11-03 00:51:00,45.0,39.8,30.13,NNW,344,0.0,0.0,82,0.00,,,0.00,Wunderground v.1.15,2013-11-03 04:51:00,
2013-11-03 00:56:00,45.0,39.8,30.13,NNW,345,0.0,1.0,82,0.00,,,0.00,Wunderground v.1.15,2013-11-03 04:56:00,
2013-11-03 01:01:00,44.9,39.7,30.13,North,360,0.0,0.0,82,0.00,,,0.00,Wunderground v.1.15,2013-11-03 05:01:00,
2013-11-03 01:07:00,44.8,39.6,30.13,North,360,0.0,1.0,82,0.00,,,0.00,Wunderground v.1.15,2013-11-03 05:07:00,
2013-11-03 01:12:00,44.8,39.6,30.13,NNW,336,1.0,1.0,82,0.00,,,0.00,Wunderground v.1.15,2013-11-03 05:12:00,
2013-11-03 01:17:00,44.8,39.6,30.13,WNW,294,0.0,1.0,82,0.00,,,0.00,Wunderground v.1.15,2013-11-03 05:17:00,
2013-11-03 01:22:00,44.8,39.6,30.13,NNW,346,1.0,1.0,82,0.00,,,0.00,Wunderground v.1.15,2013-11-03 05:22:00,
2013-11-03 01:28:00,44.8,39.6,30.13,North,355,1.0,1.0,82,0.00,,,0.00,Wunderground v.1.15,2013-11-03 05:28:00,
2013-11-03 01:34:00,44.7,39.9,30.12,North,355,0.0,0.0,83,0.00,,,0.00,Wunderground v.1.15,2013-11-03 05:34:00,
2013-11-03 01:39:00,44.6,39.8,30.13,NNE,30,1.0,1.0,83,0.00,,,0.00,Wunderground v.1.15,2013-11-03 05:39:00,
2013-11-03 01:45:00,44.4,39.9,30.13,WNW,294,0.0,1.0,84,0.00,,,0.00,Wunderground v.1.15,2013-11-03 05:45:00,
2013-11-03 01:50:00,44.3,39.8,30.13,NE,39,0.0,0.0,84,0.00,,,0.00,Wunderground v.1.15,2013-11-03 05:50:00,
2013-11-03 01:55:00,44.2,40.0,30.12,WNW,296,1.0,1.0,85,0.00,,,0.00,Wunderground v.1.15,2013-11-03 05:55:00,
2013-11-03 01:01:00,44.1,39.9,30.12,NNW,343,0.0,1.0,85,0.00,,,0.00,Wunderground v.1.15,2013-11-03 06:01:00,
2013-11-03 01:06:00,44.0,39.8,30.13,WNW,283,0.0,1.0,85,0.00,,,0.00,Wunderground v.1.15,2013-11-03 06:06:00,
2013-11-03 01:11:00,44.0,39.8,30.13,WNW,283,1.0,1.0,85,0.00,,,0.00,Wunderground v.1.15,2013-11-03 06:11:00,
2013-11-03 01:16:00,43.8,39.9,30.13,WNW,283,0.0,1.0,86,0.00,,,0.00,Wunderground v.1.15,2013-11-03 06:16:00,
2013-11-03 01:21:00,43.6,39.7,30.13,WNW,283,0.0,0.0,86,0.00,,,0.00,Wunderground v.1.15,2013-11-03 06:21:00,
2013-11-03 01:26:00,43.5,39.9,30.14,SE,141,0.0,1.0,87,0.00,,,0.00,Wunderground v.1.15,2013-11-03 06:26:00,
2013-11-03 01:31:00,43.4,39.8,30.14,NNE,17,1.0,1.0,87,0.00,,,0.00,Wunderground v.1.15,2013-11-03 06:31:00,
2013-11-03 01:36:00,43.2,39.6,30.14,North,10,0.0,2.0,87,0.00,,,0.00,Wunderground v.1.15,2013-11-03 06:36:00,
2013-11-03 01:42:00,43.1,39.8,30.14,NE,39,2.0,2.0,88,0.00,,,0.00,Wunderground v.1.15,2013-11-03 06:42:00,
2013-11-03 01:47:00,43.0,39.4,30.15,NW,322,0.0,2.0,87,0.00,,,0.00,Wunderground v.1.15,2013-11-03 06:47:00,
2013-11-03 01:53:00,42.9,39.6,30.15,North,5,0.0,0.0,88,0.00,,,0.00,Wunderground v.1.15,2013-11-03 06:53:00,
2013-11-03 01:58:00,42.9,39.6,30.15,North,5,0.0,0.0,88,0.00,,,0.00,Wunderground v.1.15,2013-11-03 06:58:00,
2013-11-03 02:03:00,42.9,39.6,30.15,NNE,18,0.0,1.0,88,0.00,,,0.00,Wunderground v.1.15,2013-11-03 07:03:00,
2013-11-03 02:08:00,42.7,39.4,30.15,NNE,18,0.0,1.0,88,0.00,,,0.00,Wunderground v.1.15,2013-11-03 07:08:00,
2013-11-03 02:13:00,42.6,39.3,30.15,North,355,2.0,3.0,88,0.00,,,0.00,Wunderground v.1.15,2013-11-03 07:13:00,
2013-11-03 02:18:00,42.6,39.3,30.16,North,355,1.0,4.0,88,0.00,,,0.00,Wunderground v.1.15,2013-11-03 07:18:00,
2013-11-03 02:23:00,42.6,39.3,30.16,NNE,13,0.0,2.0,88,0.00,,,0.00,Wunderground v.1.15,2013-11-03 07:23:00,
2013-11-03 02:28:00,42.5,39.2,30.16,NNE,13,0.0,2.0,88,0.00,,,0.00,Wunderground v.1.15,2013-11-03 07:28:00,
2013-11-03 02:33:00,42.5,39.5,30.17,NNE,13,0.0,1.0,89,0.00,,,0.00,Wunderground v.1.15,2013-11-03 07:33:00,
2013-11-03 02:38:00,42.3,39.3,30.17,North,5,0.0,2.0,89,0.00,,,0.00,Wunderground v.1.15,2013-11-03 07:38:00,
2013-11-03 02:43:00,42.3,39.3,30.17,North,5,0.0,1.0,89,0.00,,,0.00,Wunderground v.1.15,2013-11-03 07:43:00,
2013-11-03 02:48:00,42.2,39.2,30.17,North,5,0.0,1.0,89,0.00,,,0.00,Wunderground v.1.15,2013-11-03 07:48:00,
2013-11-03 02:53:00,42.1,39.4,30.17,North,5,1.0,2.0,90,0.00,,,0.00,Wunderground v.1.15,2013-11-03 07:53:00,
2013-11-03 02:58:00,42.2,39.5,30.18,North,5,0.0,2.0,90,0.00,,,0.00,Wunderground v.1.15,2013-11-03 07:58:00,
2013-11-03 03:03:00,42.3,39.3,30.18,North,5,0.0,1.0,89,0.00,,,0.00,Wunderground v.1.15,2013-11-03 08:03:00,
2013-11-03 03:08:00,42.4,39.4,30.18,North,5,0.0,1.0,89,0.00,,,0.00,Wunderground v.1.15,2013-11-03 08:08:00,
2013-11-03 03:13:00,42.5,39.5,30.19,North,5,0.0,1.0,89,0.00,,,0.00,Wunderground v.1.15,2013-11-03 08:13:00,
2013-11-03 03:18:00,42.5,39.5,30.18,North,5,0.0,1.0,89,0.00,,,0.00,Wunderground v.1.15,2013-11-03 08:18:00,
2013-11-03 03:23:00,42.4,39.4,30.19,NNE,23,1.0,2.0,89,0.00,,,0.00,Wunderground v.1.15,2013-11-03 08:23:00,
2013-11-03 03:28:00,42.4,39.7,30.19,NE,36,1.0,4.0,90,0.00,,,0.00,Wunderground v.1.15,2013-11-03 08:28:00,
2013-11-03 03:33:00,42.4,39.7,30.19,NNW,348,0.0,3.0,90,0.00,,,0.00,Wunderground v.1.15,2013-11-03 08:33:00,
2013-11-03 03:38:00,42.5,39.8,30.19,North,5,1.0,6.0,90,0.00,,,0.00,Wunderground v.1.15,2013-11-03 08:38:00,
2013-11-03 03:43:00,42.5,39.5,30.19,NNW,342,0.0,4.0,89,0.00,,,0.00,Wunderground v.1.15,2013-11-03 08:43:00,
2013-11-03 03:48:00,42.6,39.6,30.19,North,9,0.0,4.0,89,0.00,,,0.00,Wunderground v.1.15,2013-11-03 08:48:00,
2013-11-03 03:53:00,42.7,39.7,30.19,NNW,346,0.0,3.0,89,0.00,,,0.00,Wunderground v.1.15,2013-11-03 08:53:00,
2013-11-03 03:58:00,42.6,39.9,30.20,NNW,346,0.0,3.0,90,0.00,,,0.00,Wunderground v.1.15,2013-11-03 08:58:00,
2013-11-03 04:03:00,42.6,39.9,30.20,NNW,346,0.0,1.0,90,0.00,,,0.00,Wunderground v.1.15,2013-11-03 09:03:00,
2013-11-03 04:08:00,42.6,39.9,30.20,NNW,348,0.0,2.0,90,0.00,,,0.00,Wunderground v.1.15,2013-11-03 09:08:00,
2013-11-03 04:13:00,42.6,39.9,30.20,NNW,347,0.0,2.0,90,0.00,,,0.00,Wunderground v.1.15,2013-11-03 09:13:00,
2013-11-03 04:18:00,42.6,39.9,30.20,NNW,348,3.0,5.0,90,0.00,,,0.00,Wunderground v.1.15,2013-11-03 09:18:00,
2013-11-03 04:23:00,42.7,40.0,30.20,North,5,0.0,2.0,90,0.00,,,0.00,Wunderground v.1.15,2013-11-03 09:23:00,
2013-11-03 04:28:00,42.6,39.9,30.20,North,5,0.0,2.0,90,0.00,,,0.00,Wunderground v.1.15,2013-11-03 09:28:00,
2013-11-03 04:33:00,42.6,39.9,30.20,NNE,18,1.0,1.0,90,0.00,,,0.00,Wunderground v.1.15,2013-11-03 09:33:00,
2013-11-03 04:38:00,42.5,39.8,30.20,North,360,1.0,2.0,90,0.00,,,0.00,Wunderground v.1.15,2013-11-03 09:38:00,
2013-11-03 04:43:00,42.5,39.8,30.20,North,5,2.0,3.0,90,0.00,,,0.00,Wunderground v.1.15,2013-11-03 09:43:00,
2013-11-03 04:48:00,42.3,39.9,30.20,North,355,0.0,4.0,91,0.00,,,0.00,Wunderground v.1.15,2013-11-03 09:48:00,
2013-11-03 04:53:00,42.2,39.8,30.20,North,355,1.0,2.0,91,0.00,,,0.00,Wunderground v.1.15,2013-11-03 09:53:00,
2013-11-03 04:58:00,42.2,39.8,30.20,North,355,0.0,2.0,91,0.00,,,0.00,Wunderground v.1.15,2013-11-03 09:58:00,
2013-11-03 05:03:00,42.1,39.7,30.21,North,360,0.0,2.0,91,0.00,,,0.00,Wunderground v.1.15,2013-11-03 10:03:00,
2013-11-03 05:08:00,42.1,39.7,30.20,North,355,0.0,3.0,91,0.00,,,0.00,Wunderground v.1.15,2013-11-03 10:08:00,
2013-11-03 05:13:00,42.0,39.6,30.21,North,355,0.0,2.0,91,0.00,,,0.00,Wunderground v.1.15,2013-11-03 10:13:00,
2013-11-03 05:18:00,41.9,39.5,30.21,North,360,1.0,3.0,91,0.00,,,0.00,Wunderground v.1.15,2013-11-03 10:18:00,
2013-11-03 05:23:00,41.8,39.4,30.21,North,360,0.0,1.0,91,0.00,,,0.00,Wunderground v.1.15,2013-11-03 10:23:00,
2013-11-03 05:28:00,41.7,39.3,30.22,North,360,1.0,2.0,91,0.00,,,0.00,Wunderground v.1.15,2013-11-03 10:28:00,
2013-11-03 05:34:00,41.7,39.3,30.21,North,11,1.0,2.0,91,0.00,,,0.00,Wunderground v.1.15,2013-11-03 10:34:00,
2013-11-03 05:39:00,41.7,39.0,30.22,North,5,1.0,3.0,90,0.00,,,0.00,Wunderground v.1.15,2013-11-03 10:39:00,
2013-11-03 05:44:00,41.6,38.9,30.22,North,360,0.0,2.0,90,0.00,,,0.00,Wunderground v.1.15,2013-11-03 10:44:00,
2013-11-03 05:49:00,41.6,39.2,30.22,North,360,0.0,2.0,91,0.00,,,0.00,Wunderground v.1.15,2013-11-03 10:49:00,
2013-11-03 05:54:00,41.5,38.8,30.23,North,360,0.0,0.0,90,0.00,,,0.00,Wunderground v.1.15,2013-11-03 10:54:00,
2013-11-03 05:59:00,41.5,39.1,30.23,North,360,0.0,1.0,91,0.00,,,0.00,Wunderground v.1.15,2013-11-03 10:59:00,
2013-11-03 06:04:00,41.4,38.7,30.23,North,360,0.0,1.0,90,0.00,,,0.00,Wunderground v.1.15,2013-11-03 11:04:00,
2013-11-03 06:09:00,41.3,38.6,30.23,North,360,0.0,1.0,90,0.00,,,0.00,Wunderground v.1.15,2013-11-03 11:09:00,
2013-11-03 06:14:00,41.2,38.8,30.23,North,360,0.0,0.0,91,0.00,,,0.00,Wunderground v.1.15,2013-11-03 11:14:00,
2013-11-03 06:19:00,41.1,38.7,30.24,North,360,0.0,0.0,91,0.00,,,0.00,Wunderground v.1.15,2013-11-03 11:19:00,
2013-11-03 06:24:00,41.0,38.6,30.24,North,360,0.0,1.0,91,0.00,,,0.00,Wunderground v.1.15,2013-11-03 11:24:00,
2013-11-03 06:29:00,40.9,38.5,30.24,North,360,0.0,1.0,91,0.00,,,0.00,Wunderground v.1.15,2013-11-03 11:29:00,
2013-11-03 06:34:00,40.9,38.5,30.24,North,360,0.0,0.0,91,0.00,,,0.00,Wunderground v.1.15,2013-11-03 11:34:00,
2013-11-03 06:39:00,40.8,38.4,30.25,North,360,0.0,1.0,91,0.00,,,0.00,Wunderground v.1.15,2013-11-03 11:39:00,
2013-11-03 06:44:00,40.7,38.6,30.25,North,360,0.0,1.0,92,0.00,,,0.00,Wunderground v.1.15,2013-11-03 11:44:00,
2013-11-03 06:49:00,40.6,38.5,30.25,North,360,0.0,2.0,92,0.00,,,0.00,Wunderground v.1.15,2013-11-03 11:49:00,
2013-11-03 06:54:00,40.5,38.4,30.26,North,360,0.0,1.0,92,0.00,,,0.00,Wunderground v.1.15,2013-11-03 11:54:00,
2013-11-03 06:59:00,40.4,38.3,30.26,North,360,0.0,1.0,92,0.00,,,0.00,Wunderground v.1.15,2013-11-03 11:59:00,
2013-11-03 07:04:00,40.4,38.3,30.26,North,360,2.0,2.0,92,0.00,,,0.00,Wunderground v.1.15,2013-11-03 12:04:00,
2013-11-03 07:09:00,40.5,38.4,30.27,NNE,17,0.0,2.0,92,0.00,,,0.00,Wunderground v.1.15,2013-11-03 12:09:00,
2013-11-03 07:14:00,40.7,38.6,30.27,NNE,16,0.0,2.0,92,0.00,,,0.00,Wunderground v.1.15,2013-11-03 12:14:00,
2013-11-03 07:19:00,40.8,38.7,30.28,NNE,15,0.0,2.0,92,0.00,,,0.00,Wunderground v.1.15,2013-11-03 12:19:00,
2013-11-03 07:24:00,41.0,38.9,30.28,NNE,15,0.0,1.0,92,0.00,,,0.00,Wunderground v.1.15,2013-11-03 12:24:00,
2013-11-03 07:29:00,41.2,39.1,30.28,NNE,15,0.0,2.0,92,0.00,,,0.00,Wunderground v.1.15,2013-11-03 12:29:00,
2013-11-03 07:34:00,41.4,39.0,30.29,North,349,0.0,2.0,91,0.00,,,0.00,Wunderground v.1.15,2013-11-03 12:34:00,
2013-11-03 07:39:00,41.7,39.3,30.29,North,355,1.0,2.0,91,0.00,,,0.00,Wunderground v.1.15,2013-11-03 12:39:00,
2013-11-03 07:44:00,41.9,39.2,30.29,NNW,330,1.0,2.0,90,0.00,,,0.00,Wunderground v.1.15,2013-11-03 12:44:00,
2013-11-03 07:49:00,42.0,39.3,30.29,NNW,330,2.0,2.0,90,0.00,,,0.00,Wunderground v.1.15,2013-11-03 12:49:00,
2013-11-03 07:55:00,42.1,39.4,30.29,NNW,342,1.0,3.0,90,0.00,,,0.00,Wunderground v.1.15,2013-11-03 12:55:00,
2013-11-03 08:00:00,42.3,39.3,30.30,NNE,12,1.0,1.0,89,0.00,,,0.00,Wunderground v.1.15,2013-11-03 13:00:00,
2013-11-03 08:05:00,42.4,39.4,30.30,WNW,295,2.0,4.0,89,0.00,,,0.00,Wunderground v.1.15,2013-11-03 13:05:00,
2013-11-03 08:10:00,42.5,39.5,30.30,WNW,294,1.0,2.0,89,0.00,,,0.00,Wunderground v.1.15,2013-11-03 13:10:00,
2013-11-03 08:15:00,42.7,39.7,30.30,SSW,211,0.0,3.0,89,0.00,,,0.00,Wunderground v.1.15,2013-11-03 13:15:00,
2013-11-03 08:20:00,42.8,39.8,30.30,NNE,28,1.0,1.0,89,0.00,,,0.00,Wunderground v.1.15,2013-11-03 13:20:00,
2013-11-03 08:25:00,42.9,39.6,30.31,WSW,252,0.0,3.0,88,0.00,,,0.00,Wunderground v.1.15,2013-11-03 13:25:00,
2013-11-03 08:30:00,43.1,39.8,30.31,WSW,252,0.0,0.0,88,0.00,,,0.00,Wunderground v.1.15,2013-11-03 13:30:00,
2013-11-03 08:35:00,43.3,40.0,30.31,WSW,252,1.0,1.0,88,0.00,,,0.00,Wunderground v.1.15,2013-11-03 13:35:00,
2013-11-03 08:40:00,43.5,39.6,30.31,NNE,29,1.0,1.0,86,0.00,,,0.00,Wunderground v.1.15,2013-11-03 13:40:00,
2013-11-03 08:45:00,43.7,39.8,30.32,NNE,29,0.0,1.0,86,0.00,,,0.00,Wunderground v.1.15,2013-11-03 13:45:00,
2013-11-03 08:50:00,44.0,40.1,30.32,SSW,212,1.0,1.0,86,0.00,,,0.00,Wunderground v.1.15,2013-11-03 13:50:00,
2013-11-03 08:55:00,44.4,40.5,30.32,WSW,244,1.0,3.0,86,0.00,,,0.00,Wunderground v.1.15,2013-11-03 13:55:00,
2013-11-03 09:00:00,44.8,40.3,30.33,WSW,251,1.0,3.0,84,0.00,,,0.00,Wunderground v.1.15,2013-11-03 14:00:00,
2013-11-03 09:05:00,44.9,40.0,30.33,North,11,1.0,3.0,83,0.00,,,0.00,Wunderground v.1.15,2013-11-03 14:05:00,
2013-11-03 09:10:00,44.9,40.0,30.33,West,281,0.0,1.0,83,0.00,,,0.00,Wunderground v.1.15,2013-11-03 14:10:00,
2013-11-03 09:15:00,45.1,40.2,30.33,West,281,1.0,2.0,83,0.00,,,0.00,Wunderground v.1.15,2013-11-03 14:15:00,
2013-11-03 09:20:00,45.3,40.4,30.33,West,281,1.0,1.0,83,0.00,,,0.00,Wunderground v.1.15,2013-11-03 14:20:00,
2013-11-03 09:25:00,45.5,40.3,30.33,West,281,1.0,2.0,82,0.00,,,0.00,Wunderground v.1.15,2013-11-03 14:25:00,
2013-11-03 09:30:00,45.6,40.4,30.33,West,281,1.0,1.0,82,0.00,,,0.00,Wunderground v.1.15,2013-11-03 14:30:00,
2013-11-03 09:35:00,45.7,40.2,30.34,West,273,1.0,3.0,81,0.00,,,0.00,Wunderground v.1.15,2013-11-03 14:35:00,
2013-11-03 09:40:00,45.9,40.4,30.34,West,273,1.0,2.0,81,0.00,,,0.00,Wunderground v.1.15,2013-11-03 14:40:00,
2013-11-03 09:45:00,46.0,40.2,30.34,West,273,0.0,2.0,80,0.00,,,0.00,Wunderground v.1.15,2013-11-03 14:45:00,
2013-11-03 09:50:00,46.1,40.6,30.34,East,84,0.0,1.0,81,0.00,,,0.00,Wunderground v.1.15,2013-11-03 14:50:00,
2013-11-03 09:55:00,46.3,40.8,30.34,WNW,293,0.0,2.0,81,0.00,,,0.00,Wunderground v.1.15,2013-11-03 14:55:00,
2013-11-03 10:00:00,46.6,40.4,30.34,WNW,291,2.0,2.0,79,0.00,,,0.00,Wunderground v.1.15,2013-11-03 15:00:00,
2013-11-03 10:05:00,46.9,40.4,30.34,North,5,1.0,3.0,78,0.00,,,0.00,Wunderground v.1.15,2013-11-03 15:05:00,
2013-11-03 10:10:00,47.1,40.3,30.35,WNW,296,1.0,2.0,77,0.00,,,0.00,Wunderground v.1.15,2013-11-03 15:10:00,
2013-11-03 10:15:00,47.3,40.8,30.35,WNW,295,0.0,2.0,78,0.00,,,0.00,Wunderground v.1.15,2013-11-03 15:15:00,
2013-11-03 10:20:00,47.6,40.7,30.35,WNW,296,2.0,2.0,77,0.00,,,0.00,Wunderground v.1.15,2013-11-03 15:20:00,
2013-11-03 10:26:00,47.7,40.8,30.35,West,269,0.0,3.0,77,0.00,,,0.00,Wunderground v.1.15,2013-11-03 15:26:00,
2013-11-03 10:31:00,47.9,41.0,30.35,West,269,0.0,2.0,77,0.00,,,0.00,Wunderground v.1.15,2013-11-03 15:31:00,
2013-11-03 10:36:00,48.3,40.7,30.35,West,269,1.0,3.0,75,0.00,,,0.00,Wunderground v.1.15,2013-11-03 15:36:00,
2013-11-03 10:41:00,48.6,41.0,30.35,WSW,246,1.0,4.0,75,0.00,,,0.00,Wunderground v.1.15,2013-11-03 15:41:00,
2013-11-03 10:46:00,48.8,40.5,30.35,North,349,0.0,4.0,73,0.00,,,0.00,Wunderground v.1.15,2013-11-03 15:46:00,
2013-11-03 10:51:00,49.0,40.7,30.35,WNW,288,1.0,2.0,73,0.00,,,0.00,Wunderground v.1.15,2013-11-03 15:51:00,
2013-11-03 10:56:00,49.2,40.9,30.35,WNW,284,1.0,3.0,73,0.00,,,0.00,Wunderground v.1.15,2013-11-03 15:56:00,
2013-11-03 11:01:00,49.4,40.7,30.36,NW,315,1.0,4.0,72,0.00,,,0.00,Wunderground v.1.15,2013-11-03 16:01:00,
2013-11-03 11:06:00,49.5,41.2,30.36,NNW,336,0.0,4.0,73,0.00,,,0.00,Wunderground v.1.15,2013-11-03 16:06:00,
2013-11-03 11:11:00,49.7,40.3,30.36,NNW,340,2.0,2.0,70,0.00,,,0.00,Wunderground v.1.15,2013-11-03 16:11:00,
2013-11-03 11:16:00,49.8,40.4,30.36,SW,234,0.0,4.0,70,0.00,,,0.00,Wunderground v.1.15,2013-11-03 16:16:00,
2013-11-03 11:21:00,49.9,40.5,30.36,SSW,195,2.0,3.0,70,0.00,,,0.00,Wunderground v.1.15,2013-11-03 16:21:00,
2013-11-03 11:26:00,50.2,40.4,30.36,WSW,254,0.0,3.0,69,0.00,,,0.00,Wunderground v.1.15,2013-11-03 16:26:00,
2013-11-03 11:31:00,50.3,40.5,30.37,NNW,340,0.0,3.0,69,0.00,,,0.00,Wunderground v.1.15,2013-11-03 16:31:00,
2013-11-03 11:36:00,50.4,40.6,30.36,West,276,0.0,3.0,69,0.00,,,0.00,Wunderground v.1.15,2013-11-03 16:36:00,
2013-11-03 11:41:00,50.7,41.3,30.36,NNE,23,1.0,2.0,70,0.00,,,0.00,Wunderground v.1.15,2013-11-03 16:41:00,
2013-11-03 11:46:00,51.1,41.3,30.36,NW,306,2.0,3.0,69,0.00,,,0.00,Wunderground v.1.15,2013-11-03 16:46:00,
2013-11-03 11:51:00,51.2,40.6,30.36,WNW,295,0.0,3.0,67,0.00,,,0.00,Wunderground v.1.15,2013-11-03 16:51:00,
2013-11-03 11:56:00,51.2,41.0,30.36,WSW,257,1.0,3.0,68,0.00,,,0.00,Wunderground v.1.15,2013-11-03 16:56:00,
2013-11-03 12:01:00,51.4,40.8,30.36,NNW,348,1.0,2.0,67,0.00,,,0.00,Wunderground v.1.15,2013-11-03 17:01:00,
2013-11-03 12:06:00,51.5,40.9,30.36,NNE,17,1.0,4.0,67,0.00,,,0.00,Wunderground v.1.15,2013-11-03 17:06:00,
2013-11-03 12:11:00,51.5,40.9,30.36,NW,307,1.0,3.0,67,0.00,,,0.00,Wunderground v.1.15,2013-11-03 17:11:00,
2013-11-03 12:16:00,51.6,41.4,30.36,NW,307,0.0,3.0,68,0.00,,,0.00,Wunderground v.1.15,2013-11-03 17:16:00,
2013-11-03 12:21:00,51.9,41.3,30.36,WNW,286,2.0,2.0,67,0.00,,,0.00,Wunderground v.1.15,2013-11-03 17:21:00,
2013-11-03 12:26:00,51.9,41.3,30.35,NW,308,0.0,3.0,67,0.00,,,0.00,Wunderground v.1.15,2013-11-03 17:26:00,
2013-11-03 12:31:00,52.0,41.4,30.35,WSW,249,1.0,3.0,67,0.00,,,0.00,Wunderground v.1.15,2013-11-03 17:31:00,
2013-11-03 12:36:00,52.2,41.2,30.35,WSW,249,1.0,3.0,66,0.00,,,0.00,Wunderground v.1.15,2013-11-03 17:36:00,
2013-11-03 12:41:00,52.3,40.9,30.35,WSW,249,1.0,3.0,65,0.00,,,0.00,Wunderground v.1.15,2013-11-03 17:41:00,
2013-11-03 12:46:00,52.3,40.9,30.34,WSW,249,1.0,3.0,65,0.00,,,0.00,Wunderground v.1.15,2013-11-03 17:46:00,
2013-11-03 12:51:00,52.5,40.7,30.34,NNE,30,2.0,2.0,64,0.00,,,0.00,Wunderground v.1.15,2013-11-03 17:51:00,
2013-11-03 12:56:00,52.7,41.3,30.34,North,360,0.0,3.0,65,0.00,,,0.00,Wunderground v.1.15,2013-11-03 17:56:00,
2013-11-03 13:01:00,53.0,40.3,30.34,NNE,19,1.0,2.0,62,0.00,,,0.00,Wunderground v.1.15,2013-11-03 18:01:00,
2013-11-03 13:06:00,53.1,39.6,30.33,South,169,3.0,3.0,60,0.00,,,0.00,Wunderground v.1.15,2013-11-03 18:06:00,
2013-11-03 13:11:00,53.1,40.4,30.33,WSW,244,2.0,2.0,62,0.00,,,0.00,Wunderground v.1.15,2013-11-03 18:11:00,
2013-11-03 13:16:00,53.2,40.5,30.34,SE,136,2.0,2.0,62,0.00,,,0.00,Wunderground v.1.15,2013-11-03 18:16:00,
2013-11-03 13:21:00,53.3,39.8,30.33,NNE,26,3.0,4.0,60,0.00,,,0.00,Wunderground v.1.15,2013-11-03 18:21:00,
2013-11-03 13:26:00,53.3,40.6,30.33,NNE,13,0.0,6.0,62,0.00,,,0.00,Wunderground v.1.15,2013-11-03 18:26:00,
2013-11-03 13:31:00,53.6,40.0,30.33,West,271,0.0,2.0,60,0.00,,,0.00,Wunderground v.1.15,2013-11-03 18:31:00,
2013-11-03 13:36:00,53.8,40.2,30.33,North,355,0.0,5.0,60,0.00,,,0.00,Wunderground v.1.15,2013-11-03 18:36:00,
2013-11-03 13:41:00,53.8,40.7,30.33,North,9,0.0,6.0,61,0.00,,,0.00,Wunderground v.1.15,2013-11-03 18:41:00,
2013-11-03 13:46:00,53.8,38.9,30.33,WNW,298,3.0,6.0,57,0.00,,,0.00,Wunderground v.1.15,2013-11-03 18:46:00,
2013-11-03 13:51:00,53.8,39.8,30.33,NE,37,1.0,2.0,59,0.00,,,0.00,Wunderground v.1.15,2013-11-03 18:51:00,
2013-11-03 13:56:00,53.7,38.8,30.33,North,5,1.0,6.0,57,0.00,,,0.00,Wunderground v.1.15,2013-11-03 18:56:00,
2013-11-03 14:02:00,53.7,39.7,30.33,NNW,343,0.0,4.0,59,0.00,,,0.00,Wunderground v.1.15,2013-11-03 19:02:00,
2013-11-03 14:06:00,53.7,39.3,30.33,North,349,0.0,6.0,58,0.00,,,0.00,Wunderground v.1.15,2013-11-03 19:06:00,
2013-11-03 14:12:00,53.8,38.9,30.33,NNW,344,1.0,2.0,57,0.00,,,0.00,Wunderground v.1.15,2013-11-03 19:12:00,
2013-11-03 14:17:00,53.9,39.0,30.33,NNE,23,2.0,3.0,57,0.00,,,0.00,Wunderground v.1.15,2013-11-03 19:17:00,
2013-11-03 14:22:00,53.8,39.4,30.33,North,5,0.0,2.0,58,0.00,,,0.00,Wunderground v.1.15,2013-11-03 19:22:00,
2013-11-03 14:27:00,53.8,38.9,30.32,NW,323,0.0,2.0,57,0.00,,,0.00,Wunderground v.1.15,2013-11-03 19:27:00,
2013-11-03 14:32:00,53.8,39.4,30.32,NNE,13,2.0,5.0,58,0.00,,,0.00,Wunderground v.1.15,2013-11-03 19:32:00,
2013-11-03 14:37:00,53.7,38.8,30.32,NNW,333,1.0,5.0,57,0.00,,,0.00,Wunderground v.1.15,2013-11-03 19:37:00,
2013-11-03 14:42:00,53.7,39.7,30.32,NNE,31,1.0,1.0,59,0.00,,,0.00,Wunderground v.1.15,2013-11-03 19:42:00,
2013-11-03 14:47:00,53.8,39.4,30.32,NNE,32,0.0,2.0,58,0.00,,,0.00,Wunderground v.1.15,2013-11-03 19:47:00,
2013-11-03 14:52:00,53.8,39.4,30.32,ENE,59,1.0,2.0,58,0.00,,,0.00,Wunderground v.1.15,2013-11-03 19:52:00,
2013-11-03 14:57:00,53.9,39.9,30.33,NW,310,0.0,4.0,59,0.00,,,0.00,Wunderground v.1.15,2013-11-03 19:57:00,
2013-11-03 15:02:00,53.9,39.9,30.32,WNW,298,1.0,2.0,59,0.00,,,0.00,Wunderground v.1.15,2013-11-03 20:02:00,
2013-11-03 15:07:00,54.0,40.4,30.32,NNE,20,5.0,5.0,60,0.00,,,0.00,Wunderground v.1.15,2013-11-03 20:07:00,
2013-11-03 15:12:00,54.1,40.1,30.32,NNE,12,0.0,5.0,59,0.00,,,0.00,Wunderground v.1.15,2013-11-03 20:12:00,
2013-11-03 15:17:00,54.1,40.5,30.32,North,5,1.0,5.0,60,0.00,,,0.00,Wunderground v.1.15,2013-11-03 20:17:00,
2013-11-03 15:22:00,54.2,40.2,30.32,ENE,59,0.0,1.0,59,0.00,,,0.00,Wunderground v.1.15,2013-11-03 20:22:00,
2013-11-03 15:27:00,54.2,40.6,30.32,NE,35,0.0,3.0,60,0.00,,,0.00,Wunderground v.1.15,2013-11-03 20:27:00,
2013-11-03 15:32:00,54.4,40.4,30.32,NNW,346,0.0,2.0,59,0.00,,,0.00,Wunderground v.1.15,2013-11-03 20:32:00,
2013-11-03 15:37:00,54.6,40.1,30.32,NNE,19,0.0,3.0,58,0.00,,,0.00,Wunderground v.1.15,2013-11-03 20:37:00,
2013-11-03 15:42:00,54.5,40.0,30.32,NNW,346,0.0,2.0,58,0.00,,,0.00,Wunderground v.1.15,2013-11-03 20:42:00,
2013-11-03 15:47:00,54.5,40.0,30.32,NNW,344,1.0,2.0,58,0.00,,,0.00,Wunderground v.1.15,2013-11-03 20:47:00,
2013-11-03 15:52:00,54.4,39.9,30.32,NNW,338,0.0,1.0,58,0.00,,,0.00,Wunderground v.1.15,2013-11-03 20:52:00,
2013-11-03 15:57:00,54.5,40.0,30.32,NNW,337,1.0,2.0,58,0.00,,,0.00,Wunderground v.1.15,2013-11-03 20:57:00,
2013-11-03 16:02:00,54.4,39.9,30.32,NNW,337,0.0,1.0,58,0.00,,,0.00,Wunderground v.1.15,2013-11-03 21:02:00,
2013-11-03 16:07:00,54.3,40.3,30.32,NNW,340,0.0,2.0,59,0.00,,,0.00,Wunderground v.1.15,2013-11-03 21:07:00,
2013-11-03 16:12:00,54.2,39.7,30.33,NNW,344,1.0,1.0,58,0.00,,,0.00,Wunderground v.1.15,2013-11-03 21:12:00,
2013-11-03 16:17:00,54.1,39.6,30.33,NNW,344,0.0,2.0,58,0.00,,,0.00,Wunderground v.1.15,2013-11-03 21:17:00,
2013-11-03 16:22:00,54.1,39.6,30.33,NNW,344,1.0,1.0,58,0.00,,,0.00,Wunderground v.1.15,2013-11-03 21:22:00,
2013-11-03 16:27:00,54.1,39.6,30.33,NNW,344,0.0,1.0,58,0.00,,,0.00,Wunderground v.1.15,2013-11-03 21:27:00,
2013-11-03 16:32:00,54.1,39.6,30.33,NNW,344,0.0,1.0,58,0.00,,,0.00,Wunderground v.1.15,2013-11-03 21:32:00,
2013-11-03 16:37:00,54.0,40.4,30.33,NNW,344,0.0,1.0,60,0.00,,,0.00,Wunderground v.1.15,2013-11-03 21:37:00,
2013-11-03 16:42:00,53.9,39.9,30.33,NNE,28,0.0,1.0,59,0.00,,,0.00,Wunderground v.1.15,2013-11-03 21:42:00,
2013-11-03 16:47:00,53.7,39.7,30.33,NNE,28,0.0,1.0,59,0.00,,,0.00,Wunderground v.1.15,2013-11-03 21:47:00,
2013-11-03 16:52:00,53.6,40.5,30.33,NNE,28,0.0,0.0,61,0.00,,,0.00,Wunderground v.1.15,2013-11-03 21:52:00,
2013-11-03 16:57:00,53.4,39.9,30.33,NE,42,0.0,1.0,60,0.00,,,0.00,Wunderground v.1.15,2013-11-03 21:57:00,
2013-11-03 17:02:00,53.2,40.1,30.34,NE,42,0.0,0.0,61,0.00,,,0.00,Wunderground v.1.15,2013-11-03 22:02:00,
2013-11-03 17:07:00,53.0,40.3,30.34,NE,42,0.0,0.0,62,0.00,,,0.00,Wunderground v.1.15,2013-11-03 22:07:00,
2013-11-03 17:12:00,52.8,40.1,30.34,NE,42,0.0,0.0,62,0.00,,,0.00,Wunderground v.1.15,2013-11-03 22:12:00,
2013-11-03 17:17:00,52.6,40.8,30.34,NE,42,0.0,0.0,64,0.00,,,0.00,Wunderground v.1.15,2013-11-03 22:17:00,
2013-11-03 17:22:00,52.2,40.0,30.35,NE,42,0.0,0.0,63,0.00,,,0.00,Wunderground v.1.15,2013-11-03 22:22:00,
2013-11-03 17:27:00,51.9,39.7,30.35,NE,42,0.0,0.0,63,0.00,,,0.00,Wunderground v.1.15,2013-11-03 22:27:00,
2013-11-03 17:32:00,51.5,39.3,30.35,NE,42,0.0,0.0,63,0.00,,,0.00,Wunderground v.1.15,2013-11-03 22:32:00,
2013-11-03 17:38:00,51.2,39.4,30.35,NE,42,0.0,0.0,64,0.00,,,0.00,Wunderground v.1.15,2013-11-03 22:38:00,
2013-11-03 17:42:00,50.8,39.1,30.36,NE,42,0.0,0.0,64,0.00,,,0.00,Wunderground v.1.15,2013-11-03 22:42:00,
2013-11-03 17:47:00,50.4,40.2,30.36,NE,42,0.0,0.0,68,0.00,,,0.00,Wunderground v.1.15,2013-11-03 22:47:00,
2013-11-03 17:52:00,49.9,40.1,30.36,NE,42,0.0,0.0,69,0.00,,,0.00,Wunderground v.1.15,2013-11-03 22:52:00,
2013-11-03 17:58:00,49.4,39.7,30.36,NE,42,0.0,0.0,69,0.00,,,0.00,Wunderground v.1.15,2013-11-03 22:58:00,
2013-11-03 18:03:00,49.0,39.3,30.37,NE,42,0.0,0.0,69,0.00,,,0.00,Wunderground v.1.15,2013-11-03 23:03:00,
2013-11-03 18:08:00,48.6,38.9,30.37,NE,42,0.0,0.0,69,0.00,,,0.00,Wunderground v.1.15,2013-11-03 23:08:00,
2013-11-03 18:13:00,48.1,38.4,30.37,NE,42,0.0,0.0,69,0.00,,,0.00,Wunderground v.1.15,2013-11-03 23:13:00,
2013-11-03 18:18:00,47.7,38.8,30.38,NE,42,0.0,0.0,71,0.00,,,0.00,Wunderground v.1.15,2013-11-03 23:18:00,
2013-11-03 18:23:00,47.2,38.3,30.38,NE,42,0.0,0.0,71,0.00,,,0.00,Wunderground v.1.15,2013-11-03 23:23:00,
2013-11-03 18:28:00,46.8,37.9,30.38,NE,42,0.0,0.0,71,0.00,,,0.00,Wunderground v.1.15,2013-11-03 23:28:00,
2013-11-03 18:33:00,46.4,37.9,30.38,NE,42,0.0,0.0,72,0.00,,,0.00,Wunderground v.1.15,2013-11-03 23:33:00,
2013-11-03 18:38:00,46.1,37.9,30.38,NE,42,0.0,0.0,73,0.00,,,0.00,Wunderground v.1.15,2013-11-03 23:38:00,
2013-11-03 18:43:00,45.9,38.1,30.38,NE,42,0.0,0.0,74,0.00,,,0.00,Wunderground v.1.15,2013-11-03 23:43:00,
2013-11-03 18:48:00,45.7,38.2,30.38,NE,42,0.0,0.0,75,0.00,,,0.00,Wunderground v.1.15,2013-11-03 23:48:00,
2013-11-03 18:53:00,45.5,38.0,30.39,NE,42,0.0,0.0,75,0.00,,,0.00,Wunderground v.1.15,2013-11-03 23:53:00,
2013-11-03 18:58:00,45.4,38.3,30.39,NE,42,0.0,0.0,76,0.00,,,0.00,Wunderground v.1.15,2013-11-03 23:58:00,
2013-11-03 19:03:00,45.3,38.2,30.39,NE,42,0.0,0.0,76,0.00,,,0.00,Wunderground v.1.15,2013-11-04 00:03:00,
2013-11-03 19:08:00,45.2,38.1,30.39,NE,42,0.0,1.0,76,0.00,,,0.00,Wunderground v.1.15,2013-11-04 00:08:00,
2013-11-03 19:13:00,45.1,38.3,30.39,NE,42,0.0,0.0,77,0.00,,,0.00,Wunderground v.1.15,2013-11-04 00:13:00,
2013-11-03 19:18:00,45.1,38.3,30.39,NE,42,0.0,0.0,77,0.00,,,0.00,Wunderground v.1.15,2013-11-04 00:18:00,
2013-11-03 19:23:00,45.0,38.6,30.40,NE,42,0.0,0.0,78,0.00,,,0.00,Wunderground v.1.15,2013-11-04 00:23:00,
2013-11-03 19:28:00,45.0,38.6,30.40,NE,42,0.0,0.0,78,0.00,,,0.00,Wunderground v.1.15,2013-11-04 00:28:00,
2013-11-03 19:33:00,44.8,38.4,30.40,NE,42,0.0,0.0,78,0.00,,,0.00,Wunderground v.1.15,2013-11-04 00:33:00,
2013-11-03 19:38:00,44.8,38.7,30.40,NE,42,0.0,0.0,79,0.00,,,0.00,Wunderground v.1.15,2013-11-04 00:38:00,
2013-11-03 19:43:00,44.5,38.4,30.41,NE,42,0.0,0.0,79,0.00,,,0.00,Wunderground v.1.15,2013-11-04 00:43:00,
2013-11-03 19:48:00,44.4,38.3,30.41,NE,42,0.0,0.0,79,0.00,,,0.00,Wunderground v.1.15,2013-11-04 00:48:00,
2013-11-03 19:53:00,44.2,38.1,30.41,NE,42,0.0,0.0,79,0.00,,,0.00,Wunderground v.1.15,2013-11-04 00:53:00,
2013-11-03 19:59:00,44.0,37.9,30.41,NE,42,0.0,0.0,79,0.00,,,0.00,Wunderground v.1.15,2013-11-04 00:59:00,
2013-11-03 20:04:00,43.8,38.3,30.41,NE,42,0.0,0.0,81,0.00,,,0.00,Wunderground v.1.15,2013-11-04 01:04:00,
2013-11-03 20:09:00,43.6,38.2,30.42,NE,42,0.0,0.0,81,0.00,,,0.00,Wunderground v.1.15,2013-11-04 01:09:00,
2013-11-03 20:14:00,43.3,37.9,30.42,NE,42,0.0,0.0,81,0.00,,,0.00,Wunderground v.1.15,2013-11-04 01:14:00,
2013-11-03 20:19:00,43.0,37.9,30.42,NE,42,0.0,0.0,82,0.00,,,0.00,Wunderground v.1.15,2013-11-04 01:19:00,
2013-11-03 20:24:00,42.8,37.7,30.42,NE,42,0.0,0.0,82,0.00,,,0.00,Wunderground v.1.15,2013-11-04 01:24:00,
2013-11-03 20:29:00,42.6,37.8,30.42,NE,42,0.0,0.0,83,0.00,,,0.00,Wunderground v.1.15,2013-11-04 01:29:00,
2013-11-03 20:34:00,42.4,37.6,30.42,NE,42,0.0,0.0,83,0.00,,,0.00,Wunderground v.1.15,2013-11-04 01:34:00,
2013-11-03 20:39:00,42.2,37.7,30.42,NE,42,0.0,0.0,84,0.00,,,0.00,Wunderground v.1.15,2013-11-04 01:39:00,
2013-11-03 20:44:00,42.0,37.5,30.43,NE,42,0.0,0.0,84,0.00,,,0.00,Wunderground v.1.15,2013-11-04 01:44:00,
2013-11-03 20:49:00,41.8,37.3,30.43,NE,42,0.0,0.0,84,0.00,,,0.00,Wunderground v.1.15,2013-11-04 01:49:00,
2013-11-03 20:54:00,41.7,37.2,30.43,NE,42,0.0,0.0,84,0.00,,,0.00,Wunderground v.1.15,2013-11-04 01:54:00,
2013-11-03 20:59:00,41.5,37.0,30.43,NE,42,0.0,0.0,84,0.00,,,0.00,Wunderground v.1.15,2013-11-04 01:59:00,
2013-11-03 21:04:00,41.3,37.4,30.43,NE,42,0.0,0.0,86,0.00,,,0.00,Wunderground v.1.15,2013-11-04 02:04:00,
2013-11-03 21:09:00,41.0,37.1,30.43,NE,42,0.0,0.0,86,0.00,,,0.00,Wunderground v.1.15,2013-11-04 02:09:00,
2013-11-03 21:14:00,40.7,37.1,30.43,NE,42,0.0,0.0,87,0.00,,,0.00,Wunderground v.1.15,2013-11-04 02:14:00,
2013-11-03 21:19:00,40.4,37.1,30.44,NE,42,0.0,0.0,88,0.00,,,0.00,Wunderground v.1.15,2013-11-04 02:19:00,
2013-11-03 21:24:00,40.1,36.8,30.44,NE,42,0.0,0.0,88,0.00,,,0.00,Wunderground v.1.15,2013-11-04 02:24:00,
2013-11-03 21:29:00,39.8,36.8,30.44,NE,42,0.0,0.0,89,0.00,,,0.00,Wunderground v.1.15,2013-11-04 02:29:00,
2013-11-03 21:34:00,39.6,36.6,30.44,NE,42,0.0,0.0,89,0.00,,,0.00,Wunderground v.1.15,2013-11-04 02:34:00,
2013-11-03 21:39:00,39.3,36.6,30.44,NE,42,0.0,0.0,90,0.00,,,0.00,Wunderground v.1.15,2013-11-04 02:39:00,
2013-11-03 21:45:00,39.1,36.4,30.44,NE,42,0.0,0.0,90,0.00,,,0.00,Wunderground v.1.15,2013-11-04 02:45:00,
2013-11-03 21:50:00,38.9,36.2,30.45,NE,42,0.0,0.0,90,0.00,,,0.00,Wunderground v.1.15,2013-11-04 02:50:00,
2013-11-03 21:55:00,38.7,36.0,30.45,NE,42,0.0,0.0,90,0.00,,,0.00,Wunderground v.1.15,2013-11-04 02:55:00,
2013-11-03 22:00:00,38.5,36.1,30.45,NE,42,0.0,0.0,91,0.00,,,0.00,Wunderground v.1.15,2013-11-04 03:00:00,
2013-11-03 22:05:00,38.3,35.9,30.45,NE,42,0.0,0.0,91,0.00,,,0.00,Wunderground v.1.15,2013-11-04 03:05:00,
2013-11-03 22:10:00,38.1,35.7,30.45,NE,42,0.0,0.0,91,0.00,,,0.00,Wunderground v.1.15,2013-11-04 03:10:00,
2013-11-03 22:15:00,37.9,35.5,30.45,NE,42,0.0,0.0,91,0.00,,,0.00,Wunderground v.1.15,2013-11-04 03:15:00,
2013-11-03 22:20:00,37.8,35.7,30.45,NE,42,0.0,0.0,92,0.00,,,0.00,Wunderground v.1.15,2013-11-04 03:20:00,
2013-11-03 22:25:00,37.6,35.5,30.45,NE,42,0.0,0.0,92,0.00,,,0.00,Wunderground v.1.15,2013-11-04 03:25:00,
2013-11-03 22:30:00,37.4,35.6,30.45,NE,42,0.0,0.0,93,0.00,,,0.00,Wunderground v.1.15,2013-11-04 03:30:00,
2013-11-03 22:35:00,37.3,35.2,30.45,NE,42,0.0,0.0,92,0.00,,,0.00,Wunderground v.1.15,2013-11-04 03:35:00,
2013-11-03 22:40:00,37.1,35.3,30.45,NE,42,0.0,0.0,93,0.00,,,0.00,Wunderground v.1.15,2013-11-04 03:40:00,
2013-11-03 22:45:00,37.0,35.2,30.45,NE,42,0.0,0.0,93,0.00,,,0.00,Wunderground v.1.15,2013-11-04 03:45:00,
2013-11-03 22:50:00,36.8,35.2,30.45,NE,42,0.0,0.0,94,0.00,,,0.00,Wunderground v.1.15,2013-11-04 03:50:00,
2013-11-03 22:55:00,36.7,35.1,30.46,NE,42,0.0,0.0,94,0.00,,,0.00,Wunderground v.1.15,2013-11-04 03:55:00,
2013-11-03 23:00:00,36.6,35.0,30.46,NE,42,0.0,0.0,94,0.00,,,0.00,Wunderground v.1.15,2013-11-04 04:00:00,
2013-11-03 23:05:00,36.4,34.8,30.46,NE,42,0.0,0.0,94,0.00,,,0.00,Wunderground v.1.15,2013-11-04 04:05:00,
2013-11-03 23:10:00,36.3,34.7,30.46,NE,42,0.0,0.0,94,0.00,,,0.00,Wunderground v.1.15,2013-11-04 04:10:00,
2013-11-03 23:15:00,36.2,34.9,30.47,NE,42,0.0,0.0,95,0.00,,,0.00,Wunderground v.1.15,2013-11-04 04:15:00,
2013-11-03 23:20:00,35.9,34.6,30.48,NE,42,0.0,0.0,95,0.00,,,0.00,Wunderground v.1.15,2013-11-04 04:20:00,
2013-11-03 23:25:00,35.7,34.4,30.48,NE,42,0.0,0.0,95,0.00,,,0.00,Wunderground v.1.15,2013-11-04 04:25:00,
2013-11-03 23:30:00,35.6,34.3,30.48,NE,42,0.0,0.0,95,0.00,,,0.00,Wunderground v.1.15,2013-11-04 04:30:00,
2013-11-03 23:35:00,35.5,34.2,30.49,NE,42,0.0,0.0,95,0.00,,,0.00,Wunderground v.1.15,2013-11-04 04:35:00,
2013-11-03 23:40:00,35.4,34.1,30.49,NE,42,0.0,0.0,95,0.00,,,0.00,Wunderground v.1.15,2013-11-04 04:40:00,
2013-11-03 23:45:00,35.4,34.4,30.49,NE,42,0.0,0.0,96,0.00,,,0.00,Wunderground v.1.15,2013-11-04 04:45:00,
2013-11-03 23:50:00,35.3,34.3,30.49,NE,42,0.0,0.0,96,0.00,,,0.00,Wunderground v.1.15,2013-11-04 04:50:00,
2013-11-03 23:56:00,35.2,34.2,30.49,NE,42,0.0,0.0,96,0.00,,,0.00,Wunderground v.1.15,2013-11-04 04:56:00,